Probability
0 0 0 0 0 0 0 0 0 0 0 0 0 0 0 0 0 0 1 3 3 3 4 4 4 3 3 3 2 1 0 0 0 0 0 0 0 0 0 0 0 0 0 0
0 0 0 0 0 0 0 0 0 0 0 0 0 0 0 0 0 1 2 3 3 3 3 3 3 3 3 3 3 1 0 0 0 0 0 0 0 0 0 0 0 0 0 0
0 0 0 0 0 0 0 0 0 0 0 0 0 0 0 0 0 1 2 3 3 3 2 2 2 3 3 3 3 2 1 0 0 0 0 0 0 0 0 0 0 0 0 0
0 0 0 0 0 0 0 0 0 0 0 0 0 0 0 0 0 1 2 3 3 2 1 0 1 1 2 3 3 3 2 1 0 0 0 0 0 0 0 0 0 0 0 0
0 0 0 0 0 0 0 0 0 0 0 0 0 0 0 0 0 0 1 2 2 1 0 0 0 0 1 2 3 3 3 1 0 0 0 0 0 0 0 0 0 0 0 0
0 0 0 0 0 0 0 0 0 0 0 0 0 0 0 0 0 0 0 1 1 0 0 0 0 0 0 1 2 3 3 2 1 0 0 0 0 0 0 0 0 0 0 0
0 0 0 0 0 0 0 0 0 0 0 0 0 0 0 0 0 0 0 0 0 0 0 0 0 0 0 0 1 2 2 2 1 0 0 0 0 0 0 0 0 0 0 0
0 0 0 0 0 0 0 0 0 0 0 0 0 0 0 0 0 0 0 0 0 0 0 0 0 0 0 0 0 1 1 1 0 0 0 0 0 0 0 0 0 0 0 0
0 0 0 0 0 0 0 0 0 0 0 0 0 0 0 0 0 0 0 0 0 0 0 0 0 0 0 0 0 0 0 0 0 0 0 0 0 0 0 0 0 0 0 0
0 0 0 0 0 0 0 0 0 0 0 0 0 0 0 0 0 0 0 0 0 0 0 0 0 0 0 0 0 0 0 0 0 0 0 0 0 0 0 0 0 0 0 0
0 0 0 0 0 0 0 0 0 0 0 0 0 0 0 0 0 0 1 1 0 0 0 0 0 0 0 0 0 0 0 0 0 0 0 0 0 0 0 0 0 0 0 0
0 0 0 0 0 0 0 0 0 0 0 0 0 0 0 0 0 0 1 1 0 0 0 0 0 0 0 0 0 0 0 0 0 0 0 0 0 0 0 0 0 0 0 0
0 0 0 0 0 0 0 0 0 0 0 0 0 0 0 0 0 0 0 0 0 0 0 0 0 0 0 0 0 0 0 0 0 0 0 0 0 0 0 0 0 0 0 0
0 0 0 0 0 0 0 0 0 0 0 0 0 0 0 0 0 0 0 0 0 0 0 0 0 0 0 0 0 0 0 0 0 0 0 0 0 0 0 0 0 0 0 0
0 0 0 0 0 0 0 0 0 0 0 0 0 0 0 0 0 0 0 0 0 0 0 0 0 0 0 0 0 0 0 0 0 0 0 0 0 0 0 0 0 0 0 0
0 0 0 0 0 0 0 0 0 0 0 0 0 0 0 0 0 0 0 0 0 0 0 0 0 0 0 0 0 0 0 0 0 0 0 0 0 0 0 0 0 0 0 0
0 0 0 0 0 0 0 0 0 0 0 0 0 0 0 0 0 0 0 0 0 0 0 0 0 0 0 0 0 0 0 0 0 0 0 0 0 0 0 0 0 0 0 0
0 0 0 0 0 0 0 0 0 0 0 0 0 0 0 0 0 0 0 0 0 0 0 0 0 0 0 0 0 0 0 0 0 0 0 0 0 0 0 0 0 0 0 0
0 0 0 0 0 0 0 0 0 0 0 0 0 0 0 0 0 0 0 0 0 0 0 0 0 0 0 0 0 0 0 0 0 0 0 0 0 0 0 0 0 0 0 0
0 0 0 0 0 0 0 0 0 0 0 0 0 0 0 0 0 0 0 0 0 0 0 0 0 0 0 0 0 0 0 0 0 0 0 0 0 0 0 0 0 0 0 0
0 0 0 0 0 0 0 0 0 0 0 0 0 0 0 0 0 0 0 0 0 0 0 0 0 0 0 0 0 0 0 0 0 0 0 0 0 0 0 0 0 0 0 0
0 0 0 0 0 0 0 0 0 0 0 0 0 0 0 0 0 0 0 0 0 0 0 0 0 0 0 0 0 0 0 0 0 0 0 0 0 0 0 0 0 0 0 0
0 0 0 0 0 0 0 0 0 0 0 0 0 0 0 0 0 0 0 0 0 0 0 0 0 0 0 0 0 0 0 0 0 0 0 0 0 0 0 0 0 0 0 0
0 0 0 0 0 0 0 0 0 0 0 0 0 0 0 0 0 0 0 0 0 0 0 0 0 0 0 0 0 0 0 0 0 0 0 0 0 0 0 0 0 0 0 0
0 0 0 0 0 0 0 0 0 0 0 0 0 0 0 0 0 0 0 0 0 0 0 0 0 0 0 0 0 0 0 0 0 0 0 0 0 0 0 0 0 0 0 0
0 0 0 0 0 0 0 0 0 0 0 0 0 0 0 0 0 0 0 0 0 0 0 0 0 0 0 0 0 0 0 0 0 0 0 0 0 0 0 0 0 0 0 0
0 0 0 0 0 0 0 0 0 0 0 0 0 0 0 0 0 0 0 0 0 0 0 0 0 0 0 0 0 0 0 0 0 0 0 0 0 0 0 0 0 0 0 0
Wind_Speed
5 5 3 4 6 6 6 8 7 7 7 9 8 8 8 8 7 9 10 10 11 10 9 8 8 7 7 7 7 7 8 7 6 6 5 5 5 5 5 5 5 5 4 3
2 4 4 4 5 6 7 6 6 5 7 7 6 5 6 7 9 10 11 11 11 11 10 10 9 9 8 7 7 7 8 7 6 6 6 6 5 5 5 4 4 4 4 4
3 3 1 4 7 6 5 5 6 8 9 4 5 7 9 9 10 11 11 11 11 11 11 11 10 10 10 9 7 7 7 7 7 7 6 6 6 6 5 4 4 4 4 4
2 1 4 8 5 6 6 5 5 5 6 7 8 8 7 8 10 10 11 11 11 10 10 9 9 9 8 8 8 7 7 7 7 7 7 6 6 6 5 4 4 4 4 4
3 3 5 5 3 4 5 4 4 5 5 4 5 4 0 4 7 10 11 10 10 10 10 9 10 9 9 8 8 8 8 7 7 8 7 7 6 6 5 5 4 4 4 4
4 4 6 7 5 3 4 3 5 3 4 4 6 4 5 5 5 7 7 8 8 8 8 9 9 10 10 9 8 9 9 8 8 8 8 8 7 5 4 5 4 4 3 3
4 4 7 6 4 3 4 7 4 3 4 5 6 7 6 6 6 7 7 7 8 9 9 9 10 10 10 9 9 9 7 7 7 7 8 7 5 4 5 5 5 4 3 2
4 4 7 3 2 5 6 3 2 3 3 4 4 3 4 6 6 6 6 7 8 8 8 8 9 11 10 9 8 7 8 8 7 7 7 6 6 5 5 5 5 4 3 2
6 7 6 3 4 4 3 3 2 3 2 3 4 3 4 5 5 5 6 6 6 8 7 6 8 10 10 9 8 9 8 8 7 6 5 6 7 6 5 4 4 4 3 3
2 4 3 2 1 1 2 3 3 3 4 4 4 5 5 5 5 5 5 5 5 7 7 6 6 7 8 8 9 10 9 8 7 7 5 5 5 5 5 5 5 4 4 4
2 3 1 1 1 1 1 3 4 3 3 4 5 5 5 4 4 4 5 5 6 7 7 7 6 6 6 8 10 9 8 7 6 6 6 5 4 4 5 5 7 7 6 5
5 5 4 4 3 1 2 3 3 3 2 2 4 6 5 4 4 4 5 5 5 5 6 6 7 6 6 8 10 10 8 7 6 5 5 5 4 2 1 2 5 6 7 6
5 4 3 4 2 1 3 3 3 3 4 2 2 5 6 4 4 4 5 5 6 6 6 6 6 7 7 8 9 9 9 7 6 6 5 5 5 5 3 0 1 3 6 7
3 1 2 2 2 2 2 3 3 3 2 3 4 4 5 4 4 4 5 5 5 5 5 6 6 6 7 8 9 8 8 8 7 6 6 5 5 5 5 5 3 1 2 5
4 3 4 3 2 2 2 4 4 3 2 2 4 5 5 5 5 4 4 4 4 4 5 6 6 6 6 8 9 8 7 5 5 5 5 5 5 4 4 4 4 3 1 1
3 1 2 3 3 3 3 4 4 3 3 3 4 4 5 5 4 3 3 4 6 6 5 6 6 6 7 8 8 6 6 8 7 5 5 5 4 4 4 4 4 4 4 3
3 3 3 3 3 4 4 4 5 4 4 4 5 4 4 4 4 3 3 3 4 4 5 5 6 6 7 8 8 6 5 6 8 6 5 5 5 5 5 5 4 4 4 4
6 7 7 7 6 5 3 3 4 4 4 4 5 5 5 6 5 5 4 3 3 2 2 4 5 6 6 7 6 5 5 5 5 5 5 5 5 5 5 5 5 5 3 3
5 4 4 5 5 5 4 3 3 3 4 5 5 5 5 5 4 5 4 5 5 4 3 4 6 6 6 7 7 5 6 6 5 4 4 5 5 4 4 5 5 4 4 4
3 3 4 3 3 4 4 3 3 3 3 5 5 5 4 3 4 5 5 4 4 4 4 4 5 5 5 6 8 5 6 6 5 5 4 4 4 4 4 4 4 4 4 4
4 3 4 3 3 3 4 4 4 4 4 5 6 6 5 4 4 5 5 3 2 3 4 6 4 4 4 6 7 5 5 5 5 5 5 5 4 4 4 4 4 4 4 4
3 4 4 4 4 3 2 3 4 4 4 4 5 5 5 4 3 3 3 3 3 5 4 3 3 5 6 7 4 5 5 5 4 4 4 4 5 4 4 4 4 4 3 3
3 3 3 3 4 3 2 2 4 5 5 5 5 5 5 4 4 4 3 2 3 5 4 3 5 7 8 5 4 4 5 5 4 4 4 4 4 4 4 4 4 4 3 3
3 3 3 3 3 3 3 2 3 3 4 4 4 5 5 4 2 1 2 4 5 6 4 5 7 8 7 4 4 4 4 4 4 4 4 4 4 4 4 4 3 3 3 4
3 3 3 3 3 3 3 3 3 3 3 2 2 3 3 3 4 3 3 4 6 6 4 5 8 8 5 4 4 4 4 4 4 4 3 3 3 3 3 3 3 3 3 3
2 3 3 3 3 3 3 3 3 3 4 3 2 2 2 2 4 4 3 4 5 5 4 3 4 5 3 4 4 4 3 3 3 3 3 3 3 3 3 3 4 3 3 3
2 2 2 1 1 2 3 3 4 4 4 5 4 3 3 3 4 4 4 4 4 3 3 3 3 3 3 3 3 3 3 3 3 3 3 2 3 3 3 3 3 3 3 3
Wind_Direction
222 232 214 227 223 206 195 194 197 223 219 229 218 207 200 188 174 168 173 175 175 177 175 174 173 171 169 169 170 164 158 162 171 166 157 149 146 146 142 139 141 140 133 129
255 244 234 247 235 219 216 208 212 217 241 235 210 189 185 183 173 173 178 179 177 176 174 175 175 172 169 170 170 163 163 169 165 156 152 149 148 142 135 133 134 127 129 129
249 274 4 252 226 218 222 213 191 212 234 217 183 191 191 190 185 181 180 179 177 178 181 180 178 174 173 173 165 161 163 164 162 159 155 155 150 141 140 142 135 128 130 130
197 87 230 246 230 196 203 233 220 211 215 197 193 194 193 188 184 183 181 181 182 180 180 179 174 172 167 160 160 160 160 162 161 157 156 153 147 148 148 140 139 139 144 146
151 191 258 280 255 192 182 244 246 218 222 207 162 113 273 205 184 183 183 180 181 179 174 169 169 166 158 160 161 162 167 170 167 160 157 156 156 156 152 142 142 145 150 150
149 175 223 242 251 207 133 260 271 207 200 173 127 140 234 219 187 177 173 169 168 165 159 162 168 161 159 166 167 175 177 174 168 161 159 162 163 157 148 146 149 147 145 155
170 203 247 252 262 102 152 236 252 190 176 159 168 194 200 181 172 167 163 162 158 157 163 171 165 160 164 169 181 182 168 159 160 162 161 159 155 149 144 143 142 145 147 153
166 193 242 257 128 164 213 227 189 168 162 159 169 164 150 151 154 154 151 150 154 157 166 168 164 162 167 180 180 160 152 153 157 160 161 154 149 149 145 143 143 150 144 145
188 211 229 211 188 212 196 177 171 163 164 144 144 146 149 151 151 151 154 157 157 157 157 162 168 167 173 180 161 152 152 157 157 151 152 150 153 153 149 150 153 163 160 171
230 258 251 243 208 222 168 161 162 154 142 132 147 154 150 150 154 153 151 156 155 152 154 162 169 171 174 162 154 153 157 160 156 152 148 148 154 159 160 169 171 173 177 185
233 257 298 274 250 202 117 102 99 102 127 139 143 151 156 157 158 158 155 152 154 159 165 169 162 162 160 155 152 154 157 158 156 155 155 155 160 168 174 189 188 182 188 182
225 229 195 232 250 195 134 132 132 115 96 104 145 151 147 157 162 153 151 143 151 158 161 164 159 159 159 158 157 156 157 159 159 157 157 157 152 140 134 170 183 183 179 175
226 249 235 236 228 170 148 155 150 145 149 146 149 146 142 147 154 149 147 150 162 166 165 160 157 161 165 161 159 160 162 164 162 162 163 165 165 163 163 100 134 178 183 182
246 220 256 246 231 205 151 143 122 115 125 143 145 139 135 133 141 150 162 170 167 159 158 160 160 167 168 161 158 162 162 167 165 168 170 172 175 176 173 171 176 216 227 202
242 212 213 222 185 150 124 117 109 109 103 118 135 141 144 149 160 176 175 156 150 156 161 161 164 173 165 159 159 160 161 165 167 165 167 169 167 163 165 170 172 175 167 205
245 232 160 153 161 159 136 133 144 160 155 149 150 157 163 162 160 160 159 156 158 174 178 173 178 177 164 159 158 159 163 167 163 161 160 160 161 163 168 171 175 180 190 193
185 205 186 184 191 185 177 172 172 179 172 170 173 161 148 142 143 155 168 171 171 177 177 177 180 168 162 161 160 160 157 164 163 160 167 169 169 174 175 175 182 192 204 196
205 207 203 195 193 187 188 183 173 175 180 179 159 148 152 160 173 178 175 152 136 147 180 181 170 162 162 163 161 157 158 160 164 169 170 170 173 174 173 177 184 189 196 193
201 197 203 197 187 173 176 185 177 172 168 160 157 163 166 173 174 169 158 149 155 178 206 183 166 162 165 169 160 155 157 159 162 165 167 168 169 172 177 182 185 188 187 187
197 195 189 185 175 166 167 170 159 158 162 156 150 147 150 165 166 161 159 171 195 198 185 169 163 165 170 169 159 156 160 163 166 168 165 166 172 179 182 184 184 186 190 195
193 190 180 173 177 179 172 164 160 166 165 157 157 162 164 167 168 163 161 180 224 179 160 156 157 166 169 164 157 154 159 163 168 171 170 170 172 176 180 185 189 190 191 195
192 187 185 178 172 185 189 165 161 162 154 152 152 147 145 154 164 169 190 191 189 170 158 158 160 165 163 156 152 155 160 162 165 165 167 171 171 174 182 186 191 194 193 195
183 181 178 178 179 181 173 165 164 163 162 161 160 159 161 169 169 164 189 202 167 162 154 161 159 154 150 145 148 154 157 161 165 169 172 174 175 178 183 188 191 191 192 195
173 171 171 169 152 145 161 188 169 161 158 159 165 165 158 152 155 177 160 155 151 147 147 153 148 145 140 139 146 153 158 161 166 171 171 171 173 177 182 185 189 192 194 196
163 156 148 146 151 166 173 158 137 136 139 144 154 162 165 164 159 158 148 153 152 143 140 151 149 145 141 142 150 156 161 166 169 169 170 171 174 179 184 186 189 191 195 199
150 158 169 176 171 166 166 157 155 158 150 143 144 147 140 132 132 135 138 148 151 144 142 146 152 149 146 150 154 156 156 160 163 166 173 177 178 180 184 187 190 191 193 196
113 120 124 116 136 165 167 161 159 162 160 155 153 151 141 135 134 134 135 139 143 143 144 146 147 147 145 147 148 150 152 154 155 158 166 174 179 182 185 186 187 184 183 186